Year,Month,Day,Hour,Minute,Value (Times are PST for barometer in hPa)
2013,09,28,00,00,1005.15
2013,09,28,00,01,1005.22
2013,09,28,00,02,1005.18
2013,09,28,00,03,1005.28
2013,09,28,00,04,1005.22
2013,09,28,00,05,1005.25
2013,09,28,00,06,1005.22
2013,09,28,00,07,1005.25
2013,09,28,00,08,1005.22
2013,09,28,00,09,1005.22
2013,09,28,00,10,1005.18
2013,09,28,00,11,1005.15
2013,09,28,00,12,1005.15
2013,09,28,00,13,1005.15
2013,09,28,00,14,1005.15
2013,09,28,00,15,1005.11
2013,09,28,00,16,1005.15
2013,09,28,00,17,1005.08
2013,09,28,00,18,1005.11
2013,09,28,00,19,1005.08
2013,09,28,00,20,1005.11
2013,09,28,00,21,1005.11
2013,09,28,00,22,1005.05
2013,09,28,00,23,1005.08
2013,09,28,00,24,1005.08
2013,09,28,00,25,1005.01
2013,09,28,00,26,1005.01
2013,09,28,00,27,1004.98
2013,09,28,00,28,1004.98
2013,09,28,00,29,1004.95
2013,09,28,00,30,1004.98
2013,09,28,00,31,1004.91
2013,09,28,00,32,1004.88
2013,09,28,00,33,1004.84
2013,09,28,00,34,1004.81
2013,09,28,00,35,1004.78
2013,09,28,00,36,1004.74
2013,09,28,00,37,1004.74
2013,09,28,00,38,1004.74
2013,09,28,00,39,1004.74
2013,09,28,00,40,1004.71
2013,09,28,00,41,1004.64
2013,09,28,00,42,1004.61
2013,09,28,00,43,1004.61
2013,09,28,00,44,1004.64
2013,09,28,00,45,1004.64
2013,09,28,00,46,1004.57
2013,09,28,00,47,1004.57
2013,09,28,00,48,1004.57
2013,09,28,00,49,1004.50
2013,09,28,00,50,1004.47
2013,09,28,00,51,1004.40
2013,09,28,00,52,1004.34
2013,09,28,00,53,1004.37
2013,09,28,00,54,1004.27
2013,09,28,00,55,1004.30
2013,09,28,00,56,1004.20
2013,09,28,00,57,1004.17
2013,09,28,00,58,1004.10
2013,09,28,00,59,1004.10
2013,09,28,01,00,1004.10
2013,09,28,01,01,1004.03
2013,09,28,01,02,1004.03
2013,09,28,01,03,1004.03
2013,09,28,01,04,1004.03
2013,09,28,01,05,1004.03
2013,09,28,01,06,1004.00
2013,09,28,01,07,1003.93
2013,09,28,01,08,1003.93
2013,09,28,01,09,1003.93
2013,09,28,01,10,1003.90
2013,09,28,01,11,1003.86
2013,09,28,01,12,1003.83
2013,09,28,01,13,1003.79
2013,09,28,01,14,1003.76
2013,09,28,01,15,1003.76
2013,09,28,01,16,1003.66
2013,09,28,01,17,1003.66
2013,09,28,01,18,1003.66
2013,09,28,01,19,1003.59
2013,09,28,01,20,1003.56
2013,09,28,01,21,1003.59
2013,09,28,01,22,1003.49
2013,09,28,01,23,1003.49
2013,09,28,01,24,1003.49
2013,09,28,01,25,1003.39
2013,09,28,01,26,1003.35
2013,09,28,01,27,1003.39
2013,09,28,01,28,1003.35
2013,09,28,01,29,1003.32
2013,09,28,01,30,1003.32
2013,09,28,01,31,1003.29
2013,09,28,01,32,1003.29
2013,09,28,01,33,1003.25
2013,09,28,01,34,1003.18
2013,09,28,01,35,1003.18
2013,09,28,01,36,1003.08
2013,09,28,01,37,1003.05
2013,09,28,01,38,1002.98
2013,09,28,01,39,1002.95
2013,09,28,01,40,1002.88
2013,09,28,01,41,1002.88
2013,09,28,01,42,1002.88
2013,09,28,01,43,1002.88
2013,09,28,01,44,1002.85
2013,09,28,01,45,1002.85
2013,09,28,01,46,1002.74
2013,09,28,01,47,1002.78
2013,09,28,01,48,1002.74
2013,09,28,01,49,1002.71
2013,09,28,01,50,1002.64
2013,09,28,01,51,1002.64
2013,09,28,01,52,1002.64
2013,09,28,01,53,1002.61
2013,09,28,01,54,1002.54
2013,09,28,01,55,1002.54
2013,09,28,01,56,1002.57
2013,09,28,01,57,1002.61
2013,09,28,01,58,1002.54
2013,09,28,01,59,1002.54
2013,09,28,02,00,1002.54
2013,09,28,02,01,1002.51
2013,09,28,02,02,1002.51
2013,09,28,02,03,1002.47
2013,09,28,02,04,1002.41
2013,09,28,02,05,1002.37
2013,09,28,02,06,1002.34
2013,09,28,02,07,1002.34
2013,09,28,02,08,1002.37
2013,09,28,02,09,1002.34
2013,09,28,02,10,1002.30
2013,09,28,02,11,1002.20
2013,09,28,02,12,1002.17
2013,09,28,02,13,1002.13
2013,09,28,02,14,1002.13
2013,09,28,02,15,1002.13
2013,09,28,02,16,1002.13
2013,09,28,02,17,1002.10
2013,09,28,02,18,1002.07
2013,09,28,02,19,1002.07
2013,09,28,02,20,1002.00
2013,09,28,02,21,1001.97
2013,09,28,02,22,1001.97
2013,09,28,02,23,1001.90
2013,09,28,02,24,1001.93
2013,09,28,02,25,1001.86
2013,09,28,02,26,1001.83
2013,09,28,02,27,1001.76
2013,09,28,02,28,1001.80
2013,09,28,02,29,1001.76
2013,09,28,02,30,1001.73
2013,09,28,02,31,1001.66
2013,09,28,02,32,1001.63
2013,09,28,02,33,1001.59
2013,09,28,02,34,1001.56
2013,09,28,02,35,1001.56
2013,09,28,02,36,1001.56
2013,09,28,02,37,1001.52
2013,09,28,02,38,1001.49
2013,09,28,02,39,1001.49
2013,09,28,02,40,1001.46
2013,09,28,02,41,1001.45
2013,09,28,02,42,1001.32
2013,09,28,02,43,1001.29
2013,09,28,02,44,1001.25
2013,09,28,02,45,1001.29
2013,09,28,02,46,1001.15
2013,09,28,02,47,1001.25
2013,09,28,02,48,1001.22
2013,09,28,02,49,1001.12
2013,09,28,02,50,1001.08
2013,09,28,02,51,1001.05
2013,09,28,02,52,1000.95
2013,09,28,02,53,1000.98
2013,09,28,02,54,1000.88
2013,09,28,02,55,1000.92
2013,09,28,02,56,1000.88
2013,09,28,02,57,1000.85
2013,09,28,02,58,1000.78
2013,09,28,02,59,1000.71
2013,09,28,03,00,1000.64
2013,09,28,03,01,1000.61
2013,09,28,03,02,1000.64
2013,09,28,03,03,1000.58
2013,09,28,03,04,1000.58
2013,09,28,03,05,1000.58
2013,09,28,03,06,1000.58
2013,09,28,03,07,1000.54
2013,09,28,03,08,1000.48
2013,09,28,03,09,1000.44
2013,09,28,03,10,1000.44
2013,09,28,03,11,1000.48
2013,09,28,03,12,1000.48
2013,09,28,03,13,1000.44
2013,09,28,03,14,1000.41
2013,09,28,03,15,1000.34
2013,09,28,03,16,1000.27
2013,09,28,03,17,1000.27
2013,09,28,03,18,1000.31
2013,09,28,03,19,1000.31
2013,09,28,03,20,1000.17
2013,09,28,03,21,1000.14
2013,09,28,03,22,1000.17
2013,09,28,03,23,1000.10
2013,09,28,03,24,1000.10
2013,09,28,03,25,1000.03
2013,09,28,03,26,999.97
2013,09,28,03,27,999.97
2013,09,28,03,28,999.93
2013,09,28,03,29,999.90
2013,09,28,03,30,999.93
2013,09,28,03,31,999.97
2013,09,28,03,32,999.93
2013,09,28,03,33,999.97
2013,09,28,03,34,999.97
2013,09,28,03,35,1000.00
2013,09,28,03,36,999.97
2013,09,28,03,37,999.97
2013,09,28,03,38,999.90
2013,09,28,03,39,999.93
2013,09,28,03,40,999.87
2013,09,28,03,41,999.83
2013,09,28,03,42,999.76
2013,09,28,03,43,999.83
2013,09,28,03,44,999.83
2013,09,28,03,45,999.83
2013,09,28,03,46,999.80
2013,09,28,03,47,999.73
2013,09,28,03,48,999.66
2013,09,28,03,49,999.73
2013,09,28,03,50,999.66
2013,09,28,03,51,999.66
2013,09,28,03,52,999.70
2013,09,28,03,53,999.66
2013,09,28,03,54,999.63
2013,09,28,03,55,999.66
2013,09,28,03,56,999.63
2013,09,28,03,57,999.63
2013,09,28,03,58,999.63
2013,09,28,03,59,999.53
2013,09,28,04,00,999.56
2013,09,28,04,01,999.43
2013,09,28,04,02,999.43
2013,09,28,04,03,999.46
2013,09,28,04,04,999.46
2013,09,28,04,05,999.39
2013,09,28,04,06,999.36
2013,09,28,04,07,999.36
2013,09,28,04,08,999.29
2013,09,28,04,09,999.26
2013,09,28,04,10,999.26
2013,09,28,04,11,999.22
2013,09,28,04,12,999.29
2013,09,28,04,13,999.26
2013,09,28,04,14,999.22
2013,09,28,04,15,999.19
2013,09,28,04,16,999.11
2013,09,28,04,17,999.02
2013,09,28,04,18,999.02
2013,09,28,04,19,999.02
2013,09,28,04,20,998.99
2013,09,28,04,21,998.95
2013,09,28,04,22,998.92
2013,09,28,04,23,998.95
2013,09,28,04,24,998.92
2013,09,28,04,25,998.92
2013,09,28,04,26,998.88
2013,09,28,04,27,998.78
2013,09,28,04,28,998.82
2013,09,28,04,29,998.75
2013,09,28,04,30,998.75
2013,09,28,04,31,998.68
2013,09,28,04,32,998.61
2013,09,28,04,33,998.65
2013,09,28,04,34,998.61
2013,09,28,04,35,998.61
2013,09,28,04,36,998.54
2013,09,28,04,37,998.48
2013,09,28,04,38,998.44
2013,09,28,04,39,998.38
2013,09,28,04,40,998.38
2013,09,28,04,41,998.34
2013,09,28,04,42,998.31
2013,09,28,04,43,998.27
2013,09,28,04,44,998.21
2013,09,28,04,45,998.17
2013,09,28,04,46,998.14
2013,09,28,04,47,998.17
2013,09,28,04,48,998.17
2013,09,28,04,49,998.10
2013,09,28,04,50,998.07
2013,09,28,04,51,998.04
2013,09,28,04,52,998.00
2013,09,28,04,53,997.97
2013,09,28,04,54,997.90
2013,09,28,04,55,997.87
2013,09,28,04,56,997.87
2013,09,28,04,57,997.83
2013,09,28,04,58,997.80
2013,09,28,04,59,997.73
2013,09,28,05,00,997.73
2013,09,28,05,01,997.63
2013,09,28,05,02,997.63
2013,09,28,05,03,997.60
2013,09,28,05,04,997.63
2013,09,28,05,05,997.56
2013,09,28,05,06,997.50
2013,09,28,05,07,997.50
2013,09,28,05,08,997.50
2013,09,28,05,09,997.53
2013,09,28,05,10,997.46
2013,09,28,05,11,997.43
2013,09,28,05,12,997.39
2013,09,28,05,13,997.39
2013,09,28,05,14,997.33
2013,09,28,05,15,997.29
2013,09,28,05,16,997.33
2013,09,28,05,17,997.39
2013,09,28,05,18,997.33
2013,09,28,05,19,997.26
2013,09,28,05,20,997.26
2013,09,28,05,21,997.26
2013,09,28,05,22,997.22
2013,09,28,05,23,997.19
2013,09,28,05,24,997.16
2013,09,28,05,25,997.16
2013,09,28,05,26,997.09
2013,09,28,05,27,997.11
2013,09,28,05,28,997.02
2013,09,28,05,29,997.02
2013,09,28,05,30,996.99
2013,09,28,05,31,996.99
2013,09,28,05,32,996.95
2013,09,28,05,33,996.95
2013,09,28,05,34,996.92
2013,09,28,05,35,996.89
2013,09,28,05,36,996.85
2013,09,28,05,37,996.78
2013,09,28,05,38,996.78
2013,09,28,05,39,996.75
2013,09,28,05,40,996.68
2013,09,28,05,41,996.65
2013,09,28,05,42,996.65
2013,09,28,05,43,996.65
2013,09,28,05,44,996.58
2013,09,28,05,45,996.54
2013,09,28,05,46,996.45
2013,09,28,05,47,996.45
2013,09,28,05,48,996.38
2013,09,28,05,49,996.34
2013,09,28,05,50,996.28
2013,09,28,05,51,996.28
2013,09,28,05,52,996.21
2013,09,28,05,53,996.17
2013,09,28,05,54,996.21
2013,09,28,05,55,996.14
2013,09,28,05,56,996.11
2013,09,28,05,57,996.11
2013,09,28,05,58,996.07
2013,09,28,05,59,996.04
2013,09,28,06,00,996.04
2013,09,28,06,01,996.01
2013,09,28,06,02,995.97
2013,09,28,06,03,995.94
2013,09,28,06,04,995.90
2013,09,28,06,05,995.90
2013,09,28,06,06,995.80
2013,09,28,06,07,995.84
2013,09,28,06,08,995.80
2013,09,28,06,09,995.73
2013,09,28,06,10,995.70
2013,09,28,06,11,995.67
2013,09,28,06,12,995.63
2013,09,28,06,13,995.60
2013,09,28,06,14,995.56
2013,09,28,06,15,995.53
2013,09,28,06,16,995.46
2013,09,28,06,17,995.40
2013,09,28,06,18,995.36
2013,09,28,06,19,995.35
2013,09,28,06,20,995.26
2013,09,28,06,21,995.23
2013,09,28,06,22,995.12
2013,09,28,06,23,995.12
2013,09,28,06,24,995.09
2013,09,28,06,25,994.99
2013,09,28,06,26,995.02
2013,09,28,06,27,994.89
2013,09,28,06,28,994.79
2013,09,28,06,29,994.75
2013,09,28,06,30,994.75
2013,09,28,06,31,994.68
2013,09,28,06,32,994.62
2013,09,28,06,33,994.65
2013,09,28,06,34,994.65
2013,09,28,06,35,994.58
2013,09,28,06,36,994.55
2013,09,28,06,37,994.52
2013,09,28,06,38,994.41
2013,09,28,06,39,994.38
2013,09,28,06,40,994.35
2013,09,28,06,41,994.31
2013,09,28,06,42,994.31
2013,09,28,06,43,994.28
2013,09,28,06,44,994.24
2013,09,28,06,45,994.21
2013,09,28,06,46,994.24
2013,09,28,06,47,994.21
2013,09,28,06,48,994.14
2013,09,28,06,49,994.07
2013,09,28,06,50,994.04
2013,09,28,06,51,994.04
2013,09,28,06,52,993.97
2013,09,28,06,53,993.91
2013,09,28,06,54,993.91
2013,09,28,06,55,993.97
2013,09,28,06,56,993.94
2013,09,28,06,57,993.94
2013,09,28,06,58,993.87
2013,09,28,06,59,993.87
2013,09,28,07,00,993.84
2013,09,28,07,01,993.74
2013,09,28,07,02,993.70
2013,09,28,07,03,993.63
2013,09,28,07,04,993.60
2013,09,28,07,05,993.63
2013,09,28,07,06,993.63
2013,09,28,07,07,993.57
2013,09,28,07,08,993.57
2013,09,28,07,09,993.50
2013,09,28,07,10,993.47
2013,09,28,07,11,993.43
2013,09,28,07,12,993.40
2013,09,28,07,13,993.33
2013,09,28,07,14,993.36
2013,09,28,07,15,993.36
2013,09,28,07,16,993.36
2013,09,28,07,17,993.40
2013,09,28,07,18,993.33
2013,09,28,07,19,993.23
2013,09,28,07,20,993.19
2013,09,28,07,21,993.16
2013,09,28,07,22,993.16
2013,09,28,07,23,993.13
2013,09,28,07,24,993.09
2013,09,28,07,25,993.06
2013,09,28,07,26,993.06
2013,09,28,07,27,992.99
2013,09,28,07,28,992.92
2013,09,28,07,29,992.89
2013,09,28,07,30,992.89
2013,09,28,07,31,992.82
2013,09,28,07,32,992.79
2013,09,28,07,33,992.72
2013,09,28,07,34,992.69
2013,09,28,07,35,992.69
2013,09,28,07,36,992.69
2013,09,28,07,37,992.65
2013,09,28,07,38,992.65
2013,09,28,07,39,992.69
2013,09,28,07,40,992.55
2013,09,28,07,41,992.52
2013,09,28,07,42,992.55
2013,09,28,07,43,992.58
2013,09,28,07,44,992.55
2013,09,28,07,45,992.55
2013,09,28,07,46,992.52
2013,09,28,07,47,992.42
2013,09,28,07,48,992.38
2013,09,28,07,49,992.35
2013,09,28,07,50,992.38
2013,09,28,07,51,992.38
2013,09,28,07,52,992.42
2013,09,28,07,53,992.45
2013,09,28,07,54,992.45
2013,09,28,07,55,992.45
2013,09,28,07,56,992.35
2013,09,28,07,57,992.25
2013,09,28,07,58,992.25
2013,09,28,07,59,992.25
2013,09,28,08,00,992.31
2013,09,28,08,01,992.35
2013,09,28,08,02,992.38
2013,09,28,08,03,992.45
2013,09,28,08,04,992.45
2013,09,28,08,05,992.35
2013,09,28,08,06,992.30
2013,09,28,08,07,992.21
2013,09,28,08,08,992.35
2013,09,28,08,09,992.41
2013,09,28,08,10,992.31
2013,09,28,08,11,992.25
2013,09,28,08,12,992.18
2013,09,28,08,13,992.18
2013,09,28,08,14,992.18
2013,09,28,08,15,992.11
2013,09,28,08,16,992.04
2013,09,28,08,17,992.04
2013,09,28,08,18,991.98
2013,09,28,08,19,991.91
2013,09,28,08,20,991.87
2013,09,28,08,21,991.86
2013,09,28,08,22,991.77
2013,09,28,08,23,991.74
2013,09,28,08,24,991.67
2013,09,28,08,25,991.67
2013,09,28,08,26,991.67
2013,09,28,08,27,991.70
2013,09,28,08,28,991.60
2013,09,28,08,29,991.53
2013,09,28,08,30,991.43
2013,09,28,08,31,991.40
2013,09,28,08,32,991.43
2013,09,28,08,33,991.43
2013,09,28,08,34,991.40
2013,09,28,08,35,991.33
2013,09,28,08,36,991.33
2013,09,28,08,37,991.33
2013,09,28,08,38,991.30
2013,09,28,08,39,991.30
2013,09,28,08,40,991.30
2013,09,28,08,41,991.33
2013,09,28,08,42,991.33
2013,09,28,08,43,991.33
2013,09,28,08,44,991.26
2013,09,28,08,45,991.15
2013,09,28,08,46,991.03
2013,09,28,08,47,991.03
2013,09,28,08,48,990.99
2013,09,28,08,49,990.99
2013,09,28,08,50,990.96
2013,09,28,08,51,990.93
2013,09,28,08,52,990.96
2013,09,28,08,53,990.93
2013,09,28,08,54,990.93
2013,09,28,08,55,990.89
2013,09,28,08,56,990.89
2013,09,28,08,57,990.93
2013,09,28,08,58,990.86
2013,09,28,08,59,990.72
2013,09,28,09,00,990.72
2013,09,28,09,01,990.72
2013,09,28,09,02,990.76
2013,09,28,09,03,990.72
2013,09,28,09,04,990.69
2013,09,28,09,05,990.65
2013,09,28,09,06,990.65
2013,09,28,09,07,990.65
2013,09,28,09,08,990.62
2013,09,28,09,09,990.49
2013,09,28,09,10,990.45
2013,09,28,09,11,990.52
2013,09,28,09,12,990.45
2013,09,28,09,13,990.42
2013,09,28,09,14,990.38
2013,09,28,09,15,990.38
2013,09,28,09,16,990.32
2013,09,28,09,17,990.35
2013,09,28,09,18,990.38
2013,09,28,09,19,990.35
2013,09,28,09,20,990.32
2013,09,28,09,21,990.35
2013,09,28,09,22,990.28
2013,09,28,09,23,990.18
2013,09,28,09,24,990.08
2013,09,28,09,25,990.08
2013,09,28,09,26,990.08
2013,09,28,09,27,990.11
2013,09,28,09,28,990.15
2013,09,28,09,29,990.04
2013,09,28,09,30,989.98
2013,09,28,09,31,989.94
2013,09,28,09,32,989.98
2013,09,28,09,33,989.94
2013,09,28,09,34,989.94
2013,09,28,09,35,989.88
2013,09,28,09,36,989.81
2013,09,28,09,37,989.77
2013,09,28,09,38,989.71
2013,09,28,09,39,989.71
2013,09,28,09,40,989.64
2013,09,28,09,41,989.57
2013,09,28,09,42,989.50
2013,09,28,09,43,989.44
2013,09,28,09,44,989.33
2013,09,28,09,45,989.37
2013,09,28,09,46,989.37
2013,09,28,09,47,989.33
2013,09,28,09,48,989.30
2013,09,28,09,49,989.27
2013,09,28,09,50,989.23
2013,09,28,09,51,989.20
2013,09,28,09,52,989.10
2013,09,28,09,53,989.03
2013,09,28,09,54,989.00
2013,09,28,09,55,988.96
2013,09,28,09,56,989.00
2013,09,28,09,57,989.00
2013,09,28,09,58,989.03
2013,09,28,09,59,989.06
2013,09,28,10,00,989.06
2013,09,28,10,01,989.03
2013,09,28,10,02,989.03
2013,09,28,10,03,989.00
2013,09,28,10,04,988.89
2013,09,28,10,05,988.93
2013,09,28,10,06,988.96
2013,09,28,10,07,988.89
2013,09,28,10,08,988.96
2013,09,28,10,09,989.00
2013,09,28,10,10,989.00
2013,09,28,10,11,988.93
2013,09,28,10,12,988.86
2013,09,28,10,13,988.89
2013,09,28,10,14,988.79
2013,09,28,10,15,988.79
2013,09,28,10,16,988.76
2013,09,28,10,17,988.69
2013,09,28,10,18,988.55
2013,09,28,10,19,988.59
2013,09,28,10,20,988.45
2013,09,28,10,21,988.35
2013,09,28,10,22,988.28
2013,09,28,10,23,988.25
2013,09,28,10,24,988.22
2013,09,28,10,25,988.18
2013,09,28,10,26,988.18
2013,09,28,10,27,988.22
2013,09,28,10,28,988.11
2013,09,28,10,29,988.11
2013,09,28,10,30,988.08
2013,09,28,10,31,988.05
2013,09,28,10,32,988.01
2013,09,28,10,33,987.87
2013,09,28,10,34,987.71
2013,09,28,10,35,987.74
2013,09,28,10,36,987.74
2013,09,28,10,37,987.71
2013,09,28,10,38,987.74
2013,09,28,10,39,987.67
2013,09,28,10,40,987.67
2013,09,28,10,41,987.64
2013,09,28,10,42,987.64
2013,09,28,10,43,987.67
2013,09,28,10,44,987.64
2013,09,28,10,45,987.67
2013,09,28,10,46,987.64
2013,09,28,10,47,987.51
2013,09,28,10,48,987.44
2013,09,28,10,49,987.37
2013,09,28,10,50,987.40
2013,09,28,10,51,987.44
2013,09,28,10,52,987.40
2013,09,28,10,53,987.37
2013,09,28,10,54,987.37
2013,09,28,10,55,987.44
2013,09,28,10,56,987.44
2013,09,28,10,57,987.44
2013,09,28,10,58,987.40
2013,09,28,10,59,987.45
2013,09,28,11,00,987.54
2013,09,28,11,01,987.57
2013,09,28,11,02,987.64
2013,09,28,11,03,987.57
2013,09,28,11,04,987.47
2013,09,28,11,05,987.47
2013,09,28,11,06,987.40
2013,09,28,11,07,987.47
2013,09,28,11,08,987.51
2013,09,28,11,09,987.44
2013,09,28,11,10,987.47
2013,09,28,11,11,987.44
2013,09,28,11,12,987.44
2013,09,28,11,13,987.44
2013,09,28,11,14,987.40
2013,09,28,11,15,987.34
2013,09,28,11,16,987.23
2013,09,28,11,17,987.27
2013,09,28,11,18,987.27
2013,09,28,11,19,987.23
2013,09,28,11,20,987.23
2013,09,28,11,21,987.27
2013,09,28,11,22,987.23
2013,09,28,11,23,987.17
2013,09,28,11,24,987.17
2013,09,28,11,25,987.20
2013,09,28,11,26,987.17
2013,09,28,11,27,987.13
2013,09,28,11,28,987.10
2013,09,28,11,29,987.06
2013,09,28,11,30,987.06
2013,09,28,11,31,987.00
2013,09,28,11,32,986.93
2013,09,28,11,33,986.96
2013,09,28,11,34,986.96
2013,09,28,11,35,987.00
2013,09,28,11,36,986.93
2013,09,28,11,37,986.96
2013,09,28,11,38,986.83
2013,09,28,11,39,986.83
2013,09,28,11,40,986.86
2013,09,28,11,41,986.90
2013,09,28,11,42,986.83
2013,09,28,11,43,986.83
2013,09,28,11,44,986.79
2013,09,28,11,45,986.73
2013,09,28,11,46,986.76
2013,09,28,11,47,986.73
2013,09,28,11,48,986.66
2013,09,28,11,49,986.62
2013,09,28,11,50,986.66
2013,09,28,11,51,986.59
2013,09,28,11,52,986.59
2013,09,28,11,53,986.62
2013,09,28,11,54,986.56
2013,09,28,11,55,986.49
2013,09,28,11,56,986.46
2013,09,28,11,57,986.52
2013,09,28,11,58,986.56
2013,09,28,11,59,986.56
2013,09,28,12,00,986.46
2013,09,28,12,01,986.46
2013,09,28,12,02,986.39
2013,09,28,12,03,986.46
2013,09,28,12,04,986.46
2013,09,28,12,05,986.42
2013,09,28,12,06,986.39
2013,09,28,12,07,986.35
2013,09,28,12,08,986.32
2013,09,28,12,09,986.29
2013,09,28,12,10,986.32
2013,09,28,12,11,986.35
2013,09,28,12,12,986.32
2013,09,28,12,13,986.25
2013,09,28,12,14,986.22
2013,09,28,12,15,986.22
2013,09,28,12,16,986.18
2013,09,28,12,17,986.15
2013,09,28,12,18,986.15
2013,09,28,12,19,986.15
2013,09,28,12,20,986.18
2013,09,28,12,21,986.12
2013,09,28,12,22,986.22
2013,09,28,12,23,986.29
2013,09,28,12,24,986.32
2013,09,28,12,25,986.49
2013,09,28,12,26,986.62
2013,09,28,12,27,986.66
2013,09,28,12,28,986.69
2013,09,28,12,29,986.79
2013,09,28,12,30,986.86
2013,09,28,12,31,986.83
2013,09,28,12,32,986.79
2013,09,28,12,33,986.79
2013,09,28,12,34,986.83
2013,09,28,12,35,986.83
2013,09,28,12,36,986.83
2013,09,28,12,37,986.87
2013,09,28,12,38,987.00
2013,09,28,12,39,986.96
2013,09,28,12,40,987.03
2013,09,28,12,41,987.13
2013,09,28,12,42,987.13
2013,09,28,12,43,987.20
2013,09,28,12,44,987.23
2013,09,28,12,45,987.20
2013,09,28,12,46,987.23
2013,09,28,12,47,987.27
2013,09,28,12,48,987.34
2013,09,28,12,49,987.37
2013,09,28,12,50,987.44
2013,09,28,12,51,987.44
2013,09,28,12,52,987.47
2013,09,28,12,53,987.44
2013,09,28,12,54,987.44
2013,09,28,12,55,987.47
2013,09,28,12,56,987.44
2013,09,28,12,57,987.44
2013,09,28,12,58,987.47
2013,09,28,12,59,987.47
2013,09,28,13,00,987.47
2013,09,28,13,01,987.47
2013,09,28,13,02,987.54
2013,09,28,13,03,987.54
2013,09,28,13,04,987.57
2013,09,28,13,05,987.57
2013,09,28,13,06,987.57
2013,09,28,13,07,987.57
2013,09,28,13,08,987.57
2013,09,28,13,09,987.54
2013,09,28,13,10,987.54
2013,09,28,13,11,987.51
2013,09,28,13,12,987.51
2013,09,28,13,13,987.51
2013,09,28,13,14,987.51
2013,09,28,13,15,987.51
2013,09,28,13,16,987.54
2013,09,28,13,17,987.47
2013,09,28,13,18,987.51
2013,09,28,13,19,987.51
2013,09,28,13,20,987.54
2013,09,28,13,21,987.51
2013,09,28,13,22,987.51
2013,09,28,13,23,987.51
2013,09,28,13,24,987.51
2013,09,28,13,25,987.54
2013,09,28,13,26,987.58
2013,09,28,13,27,987.67
2013,09,28,13,28,987.67
2013,09,28,13,29,987.71
2013,09,28,13,30,987.67
2013,09,28,13,31,987.67
2013,09,28,13,32,987.67
2013,09,28,13,33,987.64
2013,09,28,13,34,987.67
2013,09,28,13,35,987.64
2013,09,28,13,36,987.67
2013,09,28,13,37,987.64
2013,09,28,13,38,987.64
2013,09,28,13,39,987.67
2013,09,28,13,40,987.64
2013,09,28,13,41,987.61
2013,09,28,13,42,987.67
2013,09,28,13,43,987.71
2013,09,28,13,44,987.67
2013,09,28,13,45,987.67
2013,09,28,13,46,987.67
2013,09,28,13,47,987.71
2013,09,28,13,48,987.74
2013,09,28,13,49,987.78
2013,09,28,13,50,987.78
2013,09,28,13,51,987.80
2013,09,28,13,52,987.71
2013,09,28,13,53,987.71
2013,09,28,13,54,987.67
2013,09,28,13,55,987.64
2013,09,28,13,56,987.64
2013,09,28,13,57,987.71
2013,09,28,13,58,987.67
2013,09,28,13,59,987.67
2013,09,28,14,00,987.71
2013,09,28,14,01,987.71
2013,09,28,14,02,987.67
2013,09,28,14,03,987.67
2013,09,28,14,04,987.74
2013,09,28,14,05,987.74
2013,09,28,14,06,987.81
2013,09,28,14,07,987.84
2013,09,28,14,08,987.88
2013,09,28,14,09,987.91
2013,09,28,14,10,987.95
2013,09,28,14,11,987.98
2013,09,28,14,12,987.95
2013,09,28,14,13,987.91
2013,09,28,14,14,987.95
2013,09,28,14,15,987.98
2013,09,28,14,16,987.98
2013,09,28,14,17,987.95
2013,09,28,14,18,988.01
2013,09,28,14,19,988.01
2013,09,28,14,20,988.01
2013,09,28,14,21,988.01
2013,09,28,14,22,988.01
2013,09,28,14,23,988.05
2013,09,28,14,24,988.05
2013,09,28,14,25,988.08
2013,09,28,14,26,988.05
2013,09,28,14,27,988.08
2013,09,28,14,28,988.08
2013,09,28,14,29,988.08
2013,09,28,14,30,988.08
2013,09,28,14,31,988.08
2013,09,28,14,32,988.11
2013,09,28,14,33,988.18
2013,09,28,14,34,988.15
2013,09,28,14,35,988.18
2013,09,28,14,36,988.22
2013,09,28,14,37,988.18
2013,09,28,14,38,988.15
2013,09,28,14,39,988.11
2013,09,28,14,40,988.11
2013,09,28,14,41,988.11
2013,09,28,14,42,988.18
2013,09,28,14,43,988.18
2013,09,28,14,44,988.22
2013,09,28,14,45,988.28
2013,09,28,14,46,988.28
2013,09,28,14,47,988.28
2013,09,28,14,48,988.32
2013,09,28,14,49,988.28
2013,09,28,14,50,988.35
2013,09,28,14,51,988.35
2013,09,28,14,52,988.35
2013,09,28,14,53,988.42
2013,09,28,14,54,988.39
2013,09,28,14,55,988.35
2013,09,28,14,56,988.39
2013,09,28,14,57,988.45
2013,09,28,14,58,988.42
2013,09,28,14,59,988.45
2013,09,28,15,00,988.45
2013,09,28,15,01,988.42
2013,09,28,15,02,988.39
2013,09,28,15,03,988.42
2013,09,28,15,04,988.49
2013,09,28,15,05,988.49
2013,09,28,15,06,988.55
2013,09,28,15,07,988.52
2013,09,28,15,08,988.59
2013,09,28,15,09,988.59
2013,09,28,15,10,988.59
2013,09,28,15,11,988.62
2013,09,28,15,12,988.62
2013,09,28,15,13,988.59
2013,09,28,15,14,988.55
2013,09,28,15,15,988.55
2013,09,28,15,16,988.55
2013,09,28,15,17,988.55
2013,09,28,15,18,988.55
2013,09,28,15,19,988.55
2013,09,28,15,20,988.59
2013,09,28,15,21,988.59
2013,09,28,15,22,988.55
2013,09,28,15,23,988.55
2013,09,28,15,24,988.52
2013,09,28,15,25,988.49
2013,09,28,15,26,988.49
2013,09,28,15,27,988.52
2013,09,28,15,28,988.52
2013,09,28,15,29,988.49
2013,09,28,15,30,988.52
2013,09,28,15,31,988.55
2013,09,28,15,32,988.49
2013,09,28,15,33,988.55
2013,09,28,15,34,988.55
2013,09,28,15,35,988.59
2013,09,28,15,36,988.59
2013,09,28,15,37,988.55
2013,09,28,15,38,988.59
2013,09,28,15,39,988.59
2013,09,28,15,40,988.59
2013,09,28,15,41,988.62
2013,09,28,15,42,988.55
2013,09,28,15,43,988.59
2013,09,28,15,44,988.62
2013,09,28,15,45,988.59
2013,09,28,15,46,988.55
2013,09,28,15,47,988.49
2013,09,28,15,48,988.52
2013,09,28,15,49,988.52
2013,09,28,15,50,988.55
2013,09,28,15,51,988.52
2013,09,28,15,52,988.49
2013,09,28,15,53,988.52
2013,09,28,15,54,988.55
2013,09,28,15,55,988.52
2013,09,28,15,56,988.59
2013,09,28,15,57,988.59
2013,09,28,15,58,988.59
2013,09,28,15,59,988.59
2013,09,28,16,00,988.59
2013,09,28,16,01,988.62
2013,09,28,16,02,988.62
2013,09,28,16,03,988.62
2013,09,28,16,04,988.55
2013,09,28,16,05,988.62
2013,09,28,16,06,988.62
2013,09,28,16,07,988.62
2013,09,28,16,08,988.69
2013,09,28,16,09,988.72
2013,09,28,16,10,988.76
2013,09,28,16,11,988.69
2013,09,28,16,12,988.72
2013,09,28,16,13,988.66
2013,09,28,16,14,988.62
2013,09,28,16,15,988.66
2013,09,28,16,16,988.69
2013,09,28,16,17,988.69
2013,09,28,16,18,988.69
2013,09,28,16,19,988.69
2013,09,28,16,20,988.69
2013,09,28,16,21,988.78
2013,09,28,16,22,988.69
2013,09,28,16,23,988.66
2013,09,28,16,24,988.72
2013,09,28,16,25,988.79
2013,09,28,16,26,988.76
2013,09,28,16,27,988.83